TITAN 3C TRANSTAGE R/B, 3292

Orbit data source: Space-Track

TITAN 3C TRANSTAGE R/B, 3292 is space debris in GEO originally from a launch on Thu, 13 Jun 1968 UTC launched from the Air Force Eastern Test Range (AFETR). Debris objects in space refer to the collection of defunct objects orbiting the Earth. Examples of debris include non-operational satellites, rocket bodies, and fragments generated from explosions, collisions, or faulty payload assembly.

Not visible in the next 10 days
Identifier
3292, 1968-050J
Orbit
GEO
Country
Flag of USUS
Related business
Manufacturer
Martin Marietta
Mission
Spacecraft
Bus & Motor
TRANSTAGE, Unknown motor
Mass
~1,950 kg wet, ~1,950 kg dry
Launch date (UTC)
1968-06-13 (58 years ago)
Launch vehicle
Unknown
Launch site
Air Force Eastern Test Range (AFETR)
Object type
Payload
Rocket body
Debris
Shape & HBR
CYL + 2 NOZZLE, 1.1 m
Radar Cross Section
Large (>1 m²)

Expand to show TLE details & history
Last TLE update: 8 hours ago

TLE from 8 hours ago
0 TITAN 3C TRANSTAGE R/B
1  3292U 68050J   26254.15336071 -.00000106  00000-0  00000+0 0  9997
2  3292   7.8061  51.9472 0175176   9.5158 341.8238  1.05593478 47409
Epoch: 2026-09-11T03:40Z
TLE epoch observation values (Epoch: 2026-09-11T03:40:50.365Z)
Latitude
-1.27615°
Longitude
-2.65879°
Altitude
33,683.08 km
Speed
3.18 km/s
True Right ascension
02h 50m 55s
True Declination
-1° 16' 29"
Sunlit
Object was in daylight at epoch
Visualization orbit readout
Latitude
Unknown
Longitude
Unknown
Altitude
Unknown
Speed
Unknown
Apparent Right ascension
Unknown
Apparent Declination
Unknown
Sunlit
N/A
Visualization observer readout
Local Sidereal Time
03:42:54
Azimuth
Unknown
Elevation
Unknown
Doppler factor
Unknown
Orbital elements
Apogee altitude
35,072.434 km
Perigee altitude
33,645.207 km
Semi-major axis
40,736.958 km
Eccentricity
0.01752
Inclination
7.8061°
RAAN
51.9472°
Arg. of periapsis
9.5158°
True anomaly
341.18434°
Mean anomaly
341.8238°
Eccentric anomaly
341.50542°
Mean motion
0.26397 °/min
Orbital period
1,363.77 mins
BSTAR
0
Loading maneuver chart data...
Computing Atmospheric mass density...
Loading historical data...
Loading historical data...
Loading historical data...
Loading historical data...
Loading historical data...
Loading historical data...
Loading historical data...

Documentation

Showing up to 5 results
|